Dewpoint
72 73 75 75 75 75 75 75 75 75 74 73 73 73 73 72 72 71 70 71 71 71 71 71 71 71 71 72 73 72 73 72 72 72 71 72 71 71 71 71 71 70 70 71 71 71 71 72 71 71 71 71 71 71 70 71 71 71 71 70 70 70 70 70 69 69 68 68 68 68 67 67 68 68 66 65 64 64 64 64 65 64 63 63 64
72 74 75 75 75 75 75 75 74 74 74 73 73 73 72 72 72 71 70 71 71 71 71 71 71 71 72 72 73 72 72 72 72 72 72 72 71 72 71 71 71 71 71 71 71 71 71 71 71 71 71 71 71 72 71 71 71 71 71 71 70 70 70 69 68 68 68 67 67 67 66 66 66 66 67 65 64 63 64 64 64 63 62 64 64
73 74 74 74 75 75 74 74 74 74 73 73 73 73 72 72 71 71 71 71 71 71 71 71 71 71 71 72 72 72 72 72 72 72 72 72 71 71 71 71 71 71 71 71 72 72 72 71 71 71 71 71 72 71 71 70 71 71 71 71 70 69 69 69 68 67 66 66 66 65 65 64 64 64 65 66 64 64 64 64 64 65 63 65 64
73 74 74 74 74 74 74 74 73 73 73 73 73 72 72 72 71 71 71 71 71 71 70 71 71 72 73 72 72 72 72 72 72 72 71 71 71 71 71 71 71 71 71 71 71 71 72 72 71 71 71 71 71 71 70 70 71 70 71 71 70 68 68 67 66 65 66 65 66 67 68 65 66 68 67 66 66 65 64 64 65 65 66 66 66
73 74 74 74 74 74 74 74 74 73 73 73 73 72 72 72 71 71 71 71 71 71 71 71 71 72 72 72 72 72 72 72 72 72 72 71 71 71 72 72 72 71 71 71 71 71 71 71 72 71 71 71 71 71 70 71 71 71 71 70 70 69 68 67 67 66 66 66 66 66 63 63 64 66 67 67 68 67 67 66 66 66 66 66 65
73 73 74 74 74 74 74 74 74 73 73 73 72 72 72 72 71 71 71 71 71 71 71 71 71 72 72 72 72 72 72 72 72 72 72 72 71 71 71 72 71 71 71 71 71 72 71 71 72 71 71 71 71 71 70 70 70 70 70 70 70 70 70 69 69 70 65 66 65 64 62 63 64 65 67 67 66 65 65 66 65 65 65 65 66
73 73 73 73 73 73 74 74 73 73 73 72 72 72 72 71 71 71 71 71 71 71 71 71 72 72 72 72 72 72 72 72 72 72 72 71 71 71 72 72 71 71 72 71 71 70 71 70 70 70 70 70 70 70 70 70 70 69 69 68 68 68 68 68 69 69 67 67 62 61 61 61 62 63 66 65 66 65 65 66 66 66 66 66 66
72 72 73 73 73 73 73 73 73 73 73 72 72 72 72 71 71 71 71 71 71 71 72 71 71 72 72 72 72 72 72 72 72 72 72 71 71 71 71 71 71 71 71 70 70 71 70 70 70 70 69 69 69 69 69 69 68 68 68 67 67 68 67 68 68 67 66 62 60 61 63 63 62 62 65 65 64 66 65 65 65 65 64 63 64
71 72 72 72 72 73 73 73 73 73 72 72 72 72 71 71 71 71 70 70 70 71 71 71 71 71 72 72 72 72 72 72 72 72 71 71 71 71 71 71 71 71 71 70 70 70 70 70 70 69 68 68 68 68 68 67 67 67 66 67 68 68 68 70 69 70 66 61 62 63 63 64 65 63 64 64 63 64 65 64 64 64 64 64 64
71 72 72 72 72 73 73 73 73 72 72 72 72 71 71 71 70 70 70 70 70 70 70 71 71 71 71 72 72 72 73 72 72 71 71 71 71 70 70 70 70 70 70 70 70 70 70 69 68 68 67 67 68 67 67 67 66 66 67 67 68 69 69 69 67 66 59 60 62 65 67 67 65 64 64 64 63 64 63 65 65 65 65 65 65
71 72 72 72 72 73 73 73 72 72 72 72 71 71 71 70 70 70 70 69 69 70 70 70 71 71 72 72 72 73 73 72 72 71 71 71 71 71 71 70 70 70 70 70 70 70 70 69 68 67 67 67 67 67 67 66 66 67 67 68 68 69 70 68 65 63 63 63 64 66 68 68 66 66 66 64 64 64 65 64 64 65 64 65 65
71 71 72 72 73 73 72 72 72 72 71 71 71 71 70 70 70 70 70 69 70 69 71 71 72 72 72 73 73 73 72 71 71 71 71 71 71 71 71 71 70 70 70 70 70 70 69 69 68 67 67 67 67 66 66 67 67 67 68 68 68 69 70 67 63 63 63 63 65 65 65 65 66 66 67 65 63 62 64 65 65 63 64 64 63
71 71 71 72 72 72 72 72 72 72 71 70 70 70 70 70 70 69 69 70 70 71 71 71 72 72 72 72 72 72 71 71 71 71 71 71 71 71 71 70 70 70 70 70 70 69 68 68 68 68 67 67 67 67 67 67 67 67 68 68 69 69 71 65 63 64 65 66 66 66 66 66 67 67 67 66 65 64 64 64 64 64 63 62 64
70 71 71 71 71 73 72 72 72 71 71 70 70 70 70 70 69 70 70 70 70 71 71 71 71 71 72 72 72 72 71 71 71 71 71 70 70 70 70 70 70 70 70 69 69 69 69 70 68 68 68 67 67 67 67 67 68 67 68 68 69 69 70 66 66 65 65 65 66 65 66 67 66 67 66 65 64 64 62 64 64 64 63 63 64
70 70 70 71 71 71 72 72 71 71 71 71 71 71 70 70 70 71 71 70 70 70 70 70 71 70 71 71 72 72 71 71 71 71 71 70 70 70 70 70 69 69 69 70 70 69 70 69 68 68 67 67 67 67 67 67 67 68 68 68 68 69 71 65 64 65 65 65 66 65 64 64 65 65 65 64 65 64 64 64 63 63 64 64 64
70 70 70 70 70 71 71 72 71 71 71 71 71 71 71 71 71 71 71 70 70 69 70 70 70 71 71 71 71 71 71 71 70 70 70 71 70 70 70 70 70 69 69 70 70 70 69 69 68 67 67 67 67 67 67 67 67 67 67 68 69 69 72 67 64 64 63 63 64 64 63 64 67 65 64 63 63 63 63 64 64 65 64 64 64
70 70 70 70 70 70 70 71 71 71 71 71 71 71 70 71 71 71 70 70 70 69 69 70 70 71 71 71 71 71 71 70 70 70 70 70 70 70 69 69 69 69 70 70 70 70 69 68 68 68 67 67 67 67 67 67 67 66 68 68 69 70 68 65 61 62 62 63 63 62 62 62 63 63 62 62 62 63 64 64 64 63 63 63 63
69 69 69 69 69 70 70 70 70 70 70 70 70 70 70 70 71 70 71 70 69 69 69 70 71 71 71 71 71 71 71 70 70 70 70 70 70 70 69 69 69 69 70 70 69 69 69 69 68 67 67 67 67 67 67 67 67 67 68 69 70 68 66 65 61 62 63 64 62 64 63 66 65 64 62 61 63 64 63 62 62 62 63 63 61
68 69 69 69 69 70 70 70 70 70 70 70 70 70 70 70 71 70 70 71 71 70 70 71 71 71 71 71 71 71 70 70 70 70 70 70 70 69 69 69 69 69 69 70 69 69 69 69 68 68 67 68 67 67 67 67 68 68 68 69 68 67 66 65 62 62 63 63 62 62 62 66 64 63 63 62 61 62 62 63 63 63 63 62 62
68 68 68 68 69 69 69 69 70 69 70 70 70 70 70 70 70 71 71 71 71 71 70 70 71 71 71 70 70 70 70 69 70 69 70 70 70 70 70 69 69 69 69 70 70 69 69 69 69 68 68 67 67 67 67 67 68 69 68 69 68 67 63 62 62 61 62 63 63 62 65 65 64 63 63 62 62 62 63 63 64 63 62 62 62
68 68 68 68 69 68 68 69 69 69 69 70 69 70 70 71 71 71 71 71 72 72 71 71 71 71 70 70 71 68 67 67 67 68 69 69 71 70 70 69 69 69 69 69 70 70 70 69 69 68 68 67 67 67 67 67 68 68 68 68 67 63 62 61 62 63 63 64 64 62 64 65 63 63 62 62 62 62 62 62 62 62 61 61 61
67 67 68 68 68 68 68 68 68 69 69 70 70 70 70 70 69 69 69 70 70 71 71 70 71 69 71 70 68 68 66 66 67 69 68 68 69 69 69 69 69 69 69 69 70 70 70 69 69 68 68 68 67 63 64 66 67 67 68 67 64 63 62 62 62 62 63 62 64 64 64 65 63 63 62 61 61 62 62 62 62 60 59 59 60
67 68 68 68 68 68 68 68 68 68 69 69 69 70 69 69 68 68 69 71 70 71 69 69 68 68 69 69 68 66 65 66 67 69 68 69 69 69 69 70 69 69 69 69 69 70 70 69 69 69 68 68 65 63 62 61 60 64 65 62 63 62 61 61 61 62 62 63 62 64 63 63 62 62 62 61 62 61 61 61 61 61 61 61 60
66 68 68 68 68 68 68 68 68 68 68 68 69 69 68 68 68 68 68 68 68 68 66 66 66 67 68 67 66 67 65 65 70 71 71 68 68 69 69 69 70 70 70 69 69 69 70 70 69 69 69 67 63 63 63 62 60 59 58 61 62 60 60 61 61 61 62 63 62 64 64 63 63 63 62 61 61 61 61 61 62 62 61 59 60
67 67 68 67 68 68 68 68 68 68 68 68 68 67 68 68 67 67 67 67 66 65 66 67 67 67 67 67 66 67 65 65 66 67 67 67 66 66 67 66 66 66 69 66 66 68 68 68 67 67 64 64 64 64 62 62 62 60 59 61 63 61 60 61 60 61 62 62 63 64 64 63 63 62 62 62 61 61 61 61 60 61 60 60 60
67 66 68 68 68 68 68 68 68 68 68 68 67 68 69 67 67 67 66 66 65 65 66 65 66 66 66 67 68 65 65 65 65 65 66 66 66 65 65 65 65 65 68 65 66 66 66 67 66 66 66 66 65 64 62 63 63 62 60 61 63 61 60 60 60 61 61 62 63 64 65 64 65 63 62 62 62 61 61 61 61 61 60 60 59
66 66 68 68 68 68 68 68 68 67 67 67 67 68 67 67 67 66 66 66 66 65 66 66 66 66 66 67 66 65 65 64 64 65 66 66 66 66 65 65 64 64 65 65 64 65 66 67 66 66 66 66 66 64 63 63 63 63 61 60 62 60 60 60 60 61 61 62 64 64 65 64 64 63 62 62 62 62 61 61 61 61 60 60 60
66 67 68 68 68 68 68 68 67 67 66 67 67 67 67 67 67 69 66 68 67 65 65 66 66 66 67 67 67 65 66 65 65 65 65 65 66 66 66 66 65 64 64 63 63 63 66 66 66 66 66 66 66 64 63 63 63 63 62 61 61 60 60 60 60 61 61 62 62 64 64 65 64 65 63 62 62 62 61 62 62 61 61 60 60
66 67 67 67 67 67 68 67 67 67 67 67 67 66 67 67 66 65 65 69 65 66 65 66 66 66 67 67 68 66 66 65 65 65 65 65 65 66 65 66 65 65 65 64 62 61 63 65 66 67 66 65 64 63 63 63 63 62 62 61 60 60 60 60 60 60 61 61 62 63 64 64 65 65 63 63 62 62 62 62 62 61 61 61 61
67 67 67 67 67 68 68 67 67 67 67 67 67 66 67 67 66 65 65 68 66 66 65 65 65 66 66 67 67 66 66 65 65 65 65 64 64 65 65 65 65 65 65 65 64 64 63 63 63 64 64 64 64 64 64 63 63 62 61 61 60 60 61 60 60 60 61 61 62 63 64 64 66 65 64 63 63 62 62 62 62 61 61 61 61
67 67 67 67 68 68 67 68 68 69 67 67 66 66 66 66 67 67 67 67 66 66 65 65 66 66 66 65 66 66 65 65 64 64 65 64 65 65 65 64 65 65 65 64 65 64 64 63 63 62 62 63 63 63 64 63 62 62 62 60 61 61 61 60 60 60 61 61 61 63 63 65 64 65 65 64 63 62 62 62 62 62 61 61 61
66 67 67 68 68 68 68 68 68 68 67 67 67 66 66 66 67 67 66 66 66 65 65 66 67 66 65 65 65 65 66 65 65 65 66 65 65 65 65 65 65 65 65 65 65 65 64 64 64 64 64 64 64 63 63 62 62 62 62 61 61 61 61 61 60 60 60 61 61 62 62 63 64 64 66 65 63 63 62 62 62 62 62 61 61
65 66 67 67 68 69 68 68 67 67 66 66 66 66 66 67 67 67 67 67 67 66 65 66 66 65 64 64 64 65 65 66 65 65 66 65 65 65 64 65 65 65 65 65 65 65 65 65 64 64 63 63 63 63 63 63 62 62 61 61 60 60 61 60 60 60 60 61 61 61 62 63 62 63 65 64 64 64 62 62 63 63 62 63 62
65 66 66 66 68 68 68 68 67 66 66 66 66 66 67 67 67 66 67 66 66 65 66 65 65 65 65 64 65 65 66 65 65 65 65 65 65 65 65 65 65 66 65 65 64 64 64 64 64 63 65 64 62 62 62 62 62 62 62 62 61 60 60 61 60 60 60 60 61 61 62 63 63 63 64 64 65 64 64 64 63 63 62 63 62
65 65 66 66 67 67 68 68 67 66 67 66 66 66 66 67 67 66 66 66 65 65 65 65 65 65 64 64 65 65 66 66 66 65 65 64 64 65 64 65 64 65 65 65 65 64 64 64 64 63 62 62 62 63 62 62 61 61 61 62 62 61 62 60 60 60 60 60 60 61 61 62 63 63 63 63 65 63 63 65 64 63 63 63 63
65 65 66 66 67 67 68 67 65 65 65 65 65 66 66 66 66 68 66 65 66 65 65 65 65 65 66 65 65 66 66 66 66 65 65 65 64 64 64 64 64 64 64 63 64 64 64 63 63 63 61 62 62 62 62 62 62 62 62 63 62 64 63 63 61 60 60 60 60 61 61 62 63 63 64 62 62 63 64 64 65 65 64 63 64
66 66 65 66 66 67 67 66 65 65 65 65 65 66 66 65 65 65 65 66 65 65 65 65 65 65 65 66 65 66 66 65 65 65 64 64 64 64 64 64 64 64 64 63 63 63 63 62 62 63 62 62 61 62 62 62 62 62 62 62 62 63 63 62 63 61 60 60 60 61 61 61 63 66 64 62 62 62 64 65 65 65 65 64 65
66 66 66 65 65 66 66 66 66 66 66 65 65 66 66 65 65 64 67 65 64 65 65 65 65 65 64 64 65 66 66 65 65 65 65 65 65 64 64 64 64 64 64 63 63 63 63 62 62 62 63 62 61 61 61 61 62 62 62 63 62 61 62 62 63 65 62 61 61 61 61 61 63 64 63 62 62 63 63 65 66 66 65 65 65
65 65 65 65 65 66 66 66 66 66 66 66 67 67 66 65 64 64 64 64 64 64 64 64 64 64 63 64 65 65 66 66 66 66 66 65 65 65 64 64 64 64 64 64 63 62 63 63 63 62 63 62 62 61 61 61 62 62 62 62 62 61 62 63 63 63 63 63 63 63 63 62 63 64 64 62 63 63 64 64 65 65 64 65 65
66 66 65 65 65 65 65 65 65 65 65 65 65 64 64 64 63 63 63 63 64 64 64 64 64 64 64 64 64 64 65 66 66 66 66 66 65 64 64 64 64 64 65 65 64 64 64 63 63 63 62 62 63 62 61 62 62 61 61 61 62 62 62 62 62 63 63 64 64 64 63 63 64 64 64 63 63 64 64 64 66 65 64 64 65
64 64 64 65 66 66 65 65 64 64 64 64 63 63 61 62 63 62 62 63 63 64 64 63 63 63 63 64 63 64 63 63 64 64 65 66 65 64 64 64 64 63 64 64 64 65 64 64 63 62 62 61 61 62 62 61 60 60 59 60 60 61 63 63 62 62 62 63 64 64 63 64 63 64 64 64 64 64 64 64 65 65 64 63 64
61 62 61 62 62 63 64 65 65 65 66 65 65 64 63 64 63 62 62 62 62 63 63 62 62 63 64 63 63 63 63 62 63 63 64 63 64 64 64 65 64 62 63 64 65 65 64 64 64 64 63 62 61 60 61 61 59 59 57 56 58 59 61 62 62 63 63 63 63 63 63 64 63 64 64 64 64 64 64 64 65 65 64 64 63
60 60 61 60 61 61 61 63 64 63 63 64 65 65 64 65 64 63 63 63 63 63 64 64 63 63 63 63 63 63 63 63 64 64 64 64 64 64 64 63 63 63 63 64 63 63 63 63 64 64 63 62 62 61 61 62 59 57 57 57 57 56 58 59 60 61 63 63 63 63 63 63 63 64 64 64 64 65 64 64 64 64 64 64 63
59 59 59 59 59 60 60 61 61 61 61 62 63 65 66 66 67 66 65 63 63 64 63 63 63 64 63 63 63 63 63 63 63 63 64 65 64 64 64 64 64 64 64 63 63 63 63 63 63 64 63 62 62 63 63 62 61 58 56 57 57 56 55 56 58 60 62 63 63 62 63 63 63 64 64 64 64 65 65 65 64 64 64 64 63
58 59 58 59 59 59 59 60 60 60 60 61 62 63 64 64 65 65 65 64 64 64 64 63 63 63 63 63 63 63 64 64 63 63 64 64 65 65 65 64 64 64 64 64 63 63 64 64 64 64 63 62 62 62 63 63 63 62 59 56 55 54 55 56 57 58 61 62 63 63 63 63 63 63 63 64 64 65 65 65 64 64 64 64 64
58 59 58 58 58 58 58 58 59 59 59 60 61 62 63 63 63 63 63 63 63 63 63 63 63 63 63 63 64 64 64 64 63 63 64 64 64 64 64 65 64 63 64 64 64 63 63 62 63 62 63 63 62 62 62 63 63 63 61 61 59 56 55 56 55 54 59 61 62 63 62 62 63 63 63 63 64 64 64 64 64 64 64 64 64
57 57 57 57 57 58 57 57 58 58 59 59 60 61 60 61 62 62 62 62 62 62 63 64 64 64 64 64 64 64 64 64 64 63 64 64 64 64 63 63 64 63 63 63 63 62 62 62 63 62 62 62 61 60 60 61 62 63 63 61 61 61 59 57 55 55 55 58 61 61 62 62 62 62 62 62 63 63 63 64 63 63 63 64 64
55 56 56 56 55 56 56 56 56 57 58 59 59 60 60 60 60 61 62 61 61 61 61 62 63 63 63 63 63 64 64 64 64 64 64 64 64 64 64 64 64 64 64 63 63 63 63 63 63 63 63 63 62 61 61 61 60 60 62 61 60 60 60 60 59 57 55 55 57 61 61 62 62 62 62 62 62 63 62 62 63 63 63 64 64
54 54 55 55 55 55 56 56 55 56 57 57 58 58 59 59 59 60 60 60 60 60 61 61 60 61 61 61 62 63 64 64 64 64 64 64 65 65 64 63 63 63 64 63 63 63 63 63 63 63 63 63 63 62 61 61 61 60 60 61 61 60 60 60 60 59 56 55 55 58 59 61 61 62 62 62 62 63 62 62 62 63 62 64 64
54 54 54 54 54 54 55 55 55 56 56 56 56 56 57 58 57 57 58 58 58 59 60 60 59 59 59 60 60 61 62 62 63 64 64 64 64 64 64 63 63 64 64 63 63 63 63 63 63 63 63 62 62 62 61 61 61 61 61 61 59 59 59 59 59 59 58 57 55 56 58 59 58 60 62 62 62 63 62 62 62 62 62 63 64
53 53 53 53 54 53 54 54 55 55 56 56 55 56 56 55 55 56 56 56 57 58 58 57 57 57 57 58 59 60 60 61 62 62 62 63 63 64 64 64 63 64 64 63 63 63 63 63 63 63 62 62 62 62 62 62 62 62 61 61 60 59 58 58 58 58 58 56 56 56 58 60 59 59 61 62 62 63 62 62 61 62 62 62 63